Location: Bushey
(51.6333°N, 0.3667°W)
Time: 19:12:33
(UTC+00:00)

Cosmos 2278 Rocket - Pass Details

Date: 03 March 2021
Orbit: 841 x 845 km, 71.0° (Epoch: 17 April)

Event Time Altitude Azimuth Distance (km) Brightness Sun altitude
Rises 18:37:34 0° 330° (NNW) 3,417 5.8 -8.9°
Reaches altitude 10° 18:40:34 10° 345° (NNW) 2,478 4.9 -9.3°
Maximum altitude 18:45:00 23° 36° (NE) 1,741 3.5 -10.0°
Enters shadow 18:48:37 13° 81° (E) 2,253 3.8 -10.6°
